Ana Sayfa
METAR-TAF:

METAR-TAF

Havaalanları :

Fort Worth Spinks Airport

Fort Worth, Teksas, Amerika Birleşik Devletleri

Enlem: 32-34N, Boylam: 097-18W, yükseklik: 213 m

Güncel hava durumu gözlemi

Rapor saat 15:47 UTC de 29 dakika önce yapıldı.
Rüzgar güneydan 8 kt
Sıcaklık 25°C
Nem 79%
Basınç 1013 hPa
Görüş mesafesi: 16.1 km
Açık gökyüzü

METAR: KFWS 181547Z 19008KT 10SM CLR 25/21 A2990

Saat: 11:16 (16:16 UTC)


TAF: eksik

4.000'den fazla havaalanı için hava durumu gözlemleri ve tahminleri (METAR ve TAF raporları).

Kullanılabilir istasyonlar harita üzerinde sarı ve kırmızı noktalarla gösterilir.

İstasyonun adını görmek için fareyi noktanın üzerinde gezdirin.

Sonrasında hava gözlem ve tahminlerini görmek için tıklayın.

Haritayı değiştirmek için: yaklaştırmak için siyah artı işaretli yeşil düğmeye ve uzaklaştırmak için de eksi işaretli düğmeye hızla tıklayın; bitişik haritalar için yeşil okları kullanın.


METAR-TAF: